星链-4500 (STARLINK-4500 )

导读

STARLINK-4500是美国太空探索技术公司SpaceX星链(Starlink)项目的卫星,于2022年8月10日发射,星链项目旨在打造全球卫星互联网星座,为全球范围内用户提供低延迟、高速率的互联网接入服务,该卫星入轨后承担相关通信服务任务,助力星座组网覆盖,推进星链全球服务布局。

Basic Information
目录编号:
53413
目录名称:
STARLINK-4500
国际标识:
2022-097AB
轨道中心:
EARTH
卫星名称:
星链-4500
卫星全名:
星链-4500 (STARLINK-4500 )
卫星状态:
在轨 (已飞行1493 天)
发射日期:
2022-08-10 UTC
国别 :
美国 (US)
星等 :
--
This satellite is enrolled in the Space Conjunction Data Service (SCDS) and the current flight risk assessment level is: No High Risk
Orbit Information
数据来源 国际轨道数据 AOE轨道数据
星历时间 2026-09-10T21:58:03+0800
18小时前
查看轨道信息
2026-09-10T08:00:00+0800
1天前
查看轨道信息
半长轴 6917.902km 6917.925km
偏心率 0.0001053 0.0001106
轨道倾角 53.162° 53.161°
近地点辐角 80.545° 74.630°
升交点赤经 3.503° 6.119°
平近点角 279.567° 2.506°
近地点 539.036km 539.022km
远地点 540.494km 540.554km
周期 95.438分钟 95.438分钟
每日圈数 15.088331 15.088256
Detailed Information
固有亮度:
5
最大亮度:
2.5
卫星平台:
Starlink v1.5
覆盖范围:
全球
运营商:
太空探索技术公司
运营商所在国:
美国
制造商(研发单位):
太空探索技术公司
制造商所在国:
美国
使用方式:
暂无
Satellite Introduction
星链(Starlink)计划是由太空探索技术公司(SpaceX)提出的一个巨型低轨卫星互联网星座项目,计划在2019年至2024年间在太空搭建由约1.2万颗卫星组成的“星链”网络,其中1584颗将部署在地球上空550千米处的近地轨道,并从2020年开始工作。该卫星仍在工作。
2D Orbit Map
3D Orbit Map
Orbit Altitude Analysis Chart
Orbit Inclination Analysis Chart
Orbit Comprehensive Analysis Chart
View Comprehensive Chart
Conjunction Data List
Event ID Objects TCA Miss Dist (km) Collision Risk Probability Collision Risk Index (CRI) Action
CDM_260911-110104-560305-341325
2026-09-11T
11:01:48+0000
2.049 km
极远距离
2.346731E-6 低风险 0.42
Miss Distance Evolution Trend with All Objects
Collision Probability Evolution Trend with All Objects